Vorticity
5 5 4 5 9 10 7 4 5 8 7 10 9 8 7 4 2 -3 5 -5 3 2 -2 5 4 5 9 10 9 4 5 13 10 -0 4 6 6 7 5 9 10 18 18 18 14 8 3 3 20
5 5 4 3 9 8 4 7 7 7 10 8 9 8 6 4 8 7 6 5 7 9 12 11 10 12 10 6 7 13 10 1 7 11 11 13 10 11 13 14 8 5 6 11 7 5 8 6 6
3 4 5 7 10 1 8 9 9 9 8 9 12 4 5 7 5 15 21 16 12 8 10 10 9 13 13 9 8 4 7 11 14 11 11 8 8 7 10 7 8 12 9 11 11 10 10 10 13
7 11 13 10 7 8 9 12 11 11 12 11 8 5 13 21 16 3 7 9 12 12 11 12 6 7 5 6 9 14 12 6 7 9 13 19 17 12 11 13 13 12 13 12 11 12 12 12 13
13 11 12 11 9 12 13 10 8 8 9 8 14 14 11 10 8 -0 5 6 8 3 7 8 11 10 11 11 12 12 12 13 14 15 5 3 4 5 4 3 2 2 7 10 13 16 13 14 15
22 13 19 10 13 11 9 12 11 7 10 11 11 8 7 6 16 18 14 14 12 14 13 19 16 18 19 22 19 15 11 6 4 2 4 2 -0 0 2 4 3 4 3 3 2 1 3 5 4
12 10 1 8 7 7 15 8 3 10 12 13 11 11 9 7 9 19 19 15 8 7 4 6 6 5 5 3 1 2 4 4 2 2 2 4 5 6 7 6 5 4 5 6 6 6 5 4 3
8 9 9 5 8 12 2 15 21 18 19 15 16 2 7 6 10 2 4 9 7 7 5 4 4 4 3 2 3 3 4 3 4 4 5 6 6 5 5 5 7 8 7 6 5 7 8 7 6
6 1 5 14 7 5 16 16 5 2 6 6 8 5 3 5 9 7 4 3 3 3 1 1 2 3 3 3 3 4 4 4 4 4 3 4 6 5 4 4 5 4 4 2 2 5 6 6 6
2 4 11 7 4 22 16 -0 -1 4 3 3 5 4 2 0 0 2 2 1 2 1 2 3 2 2 1 1 1 3 4 6 7 6 5 6 4 0 -2 -0 1 2 3 3 3 2 3 7 9
7 4 3 3 16 7 3 4 5 2 5 4 1 2 6 6 4 2 2 1 3 5 4 3 3 3 4 7 7 7 5 3 3 3 3 2 0 0 1 1 2 4 5 5 4 4 3 3 5
8 11 11 10 7 3 3 3 4 3 -0 6 5 4 4 4 3 5 6 7 6 4 6 6 7 9 8 4 2 2 2 2 3 4 5 7 8 7 7 7 7 7 7 8 6 6 6 6 6
12 4 6 3 5 3 2 5 7 7 5 4 3 4 4 6 3 2 3 4 7 8 7 4 3 2 1 2 1 2 3 4 5 5 5 5 5 6 8 8 9 8 6 5 5 5 5 4 5
4 5 3 5 5 4 4 5 5 6 4 4 4 2 3 5 7 7 6 6 5 4 3 5 3 0 2 1 3 4 3 4 4 5 5 7 7 3 2 3 5 7 7 7 8 8 8 6 5
7 3 3 3 4 5 4 9 7 5 5 4 4 6 5 3 7 6 4 3 5 5 4 5 6 6 5 4 3 4 3 4 4 4 4 4 8 9 8 6 7 7 7 9 8 9 10 9 8
6 2 5 8 7 4 7 8 5 2 1 5 2 1 6 8 6 5 5 5 3 2 6 8 5 1 4 5 6 5 6 6 3 4 6 0 8 4 7 6 7 9 12 12 10 10 10 11 13
8 9 7 7 8 5 10 9 10 7 6 8 4 5 6 4 4 6 5 3 2 4 5 2 4 7 8 5 7 7 3 1 4 8 5 5 8 9 6 7 8 7 4 5 6 6 5 5 5
5 4 3 5 3 4 1 4 5 2 2 2 6 6 3 5 4 4 4 2 3 4 4 3 8 7 3 6 8 5 1 5 8 4 5 8 6 5 5 4 3 5 5 5 3 3 2 1 2
9 9 8 7 6 7 8 7 6 6 10 8 4 6 5 4 2 3 3 3 5 4 4 4 7 4 2 4 5 2 0 3 7 7 7 7 5 7 5 3 2 3 3 2 3 7 6 5 6
5 8 7 8 4 3 4 4 7 6 3 4 6 4 3 2 3 2 3 5 5 6 4 5 6 3 4 3 4 5 4 10 11 6 4 4 5 3 3 2 2 3 4 4 3 4 5 6 4
5 6 7 6 9 5 7 6 8 8 7 6 4 6 4 4 4 4 4 4 5 5 3 5 4 3 4 5 5 6 10 7 5 3 3 4 4 5 4 3 3 1 3 5 7 6 6 11 4
4 4 6 6 9 8 6 2 4 3 2 4 5 2 4 5 7 6 10 5 6 2 7 6 3 6 8 10 9 8 7 4 3 4 5 4 5 7 8 9 10 11 10 8 9 13 12 12 13
5 4 3 3 6 7 8 9 2 3 3 2 3 5 7 10 11 10 3 8 3 4 6 5 10 11 6 7 8 8 5 2 2 5 7 5 3 2 4 5 5 7 7 8 9 8 4 5 8
4 6 9 8 5 5 8 7 -0 5 4 4 8 12 9 7 7 8 6 4 6 8 10 10 7 7 9 8 6 4 2 5 4 6 5 4 4 3 6 8 11 11 8 7 9 13 12 10 10
10 11 11 11 11 7 9 7 7 6 9 10 9 9 9 10 10 5 8 13 10 11 6 5 6 7 7 6 2 4 7 -5 3 7 6 7 10 12 9 9 5 13 5 14 15 5 8 10 0
16 13 11 10 7 5 3 5 8 13 11 10 10 9 12 8 13 13 9 11 2 4 3 6 8 6 4 2 1 3 10 10 7 7 10 11 8 10 7 10 11 8 11 6 1 2 14 12 25
7 6 7 8 8 9 8 10 6 10 8 8 10 13 14 9 11 7 0 4 2 7 6 9 6 5 5 6 10 11 7 8 9 12 9 10 8 9 10 10 7 3 10 2 7 36 20 44 39
5 6 9 8 9 8 6 8 2 5 8 12 10 7 9 5 2 6 6 4 9 9 8 5 4 6 9 8 5 6 6 8 9 6 7 11 10 9 6 10 6 6 10 31 36 46 32 38 27
10 10 9 8 6 8 8 2 6 10 8 5 11 6 7 3 5 6 8 10 6 6 6 4 7 4 6 9 8 8 5 6 10 12 13 13 4 5 9 5 6 16 51 34 37 24 17 20 8
8 8 7 9 10 4 7 11 8 4 10 10 9 6 4 6 6 10 4 5 7 7 6 4 8 6 5 10 5 5 6 11 9 12 13 9 3 3 5 22 48 38 40 25 13 14 4 9 14
Height
5852 5853 5852 5853 5858 5855 5853 5853 5852 5851 5853 5853 5852 5853 5852 5852 5851 5853 5849 5848 5847 5846 5846 5846 5845 5843 5840 5839 5838 5837 5835 5834 5831 5830 5830 5828 5826 5825 5823 5822 5821 5819 5817 5814 5814 5812 5810 5808 5805
5847 5848 5848 5849 5852 5849 5848 5847 5848 5849 5849 5849 5849 5850 5849 5849 5849 5849 5848 5846 5845 5844 5844 5842 5841 5839 5837 5836 5835 5833 5832 5830 5831 5828 5826 5825 5823 5821 5819 5818 5818 5815 5811 5810 5810 5808 5806 5803 5802
5842 5843 5845 5846 5846 5844 5844 5843 5845 5846 5846 5845 5846 5846 5846 5846 5846 5844 5842 5842 5841 5840 5839 5839 5838 5837 5834 5833 5831 5830 5830 5828 5828 5825 5823 5821 5819 5817 5816 5815 5812 5811 5809 5808 5806 5805 5803 5801 5799
5838 5839 5840 5841 5840 5840 5840 5842 5843 5842 5842 5843 5843 5843 5842 5841 5841 5840 5839 5839 5839 5839 5836 5836 5835 5834 5833 5831 5829 5828 5828 5827 5825 5822 5821 5818 5817 5816 5814 5812 5811 5809 5807 5805 5803 5802 5800 5799 5797
5834 5834 5835 5836 5836 5838 5839 5839 5840 5840 5840 5840 5840 5840 5840 5839 5838 5837 5836 5836 5837 5835 5835 5833 5833 5832 5832 5830 5828 5826 5826 5825 5823 5821 5819 5818 5816 5815 5813 5812 5811 5809 5806 5804 5802 5800 5798 5797 5795
5831 5832 5833 5832 5834 5835 5836 5836 5838 5838 5838 5838 5838 5838 5838 5838 5836 5834 5834 5835 5834 5833 5833 5833 5833 5832 5831 5828 5828 5826 5825 5822 5822 5821 5820 5817 5815 5812 5811 5810 5808 5806 5804 5802 5801 5799 5797 5795 5794
5827 5829 5831 5829 5833 5833 5835 5835 5836 5836 5837 5836 5837 5837 5837 5836 5834 5833 5833 5834 5833 5833 5833 5833 5832 5832 5829 5828 5826 5825 5823 5821 5821 5819 5817 5815 5812 5810 5809 5807 5805 5802 5801 5799 5798 5797 5796 5795 5793
5826 5828 5828 5830 5832 5833 5834 5834 5834 5835 5836 5836 5836 5836 5836 5835 5834 5833 5833 5835 5834 5833 5833 5831 5830 5829 5826 5825 5824 5822 5821 5819 5818 5817 5814 5811 5809 5807 5805 5803 5801 5800 5797 5795 5793 5793 5792 5791 5790
5826 5829 5828 5830 5832 5831 5833 5833 5835 5835 5835 5835 5835 5835 5834 5834 5833 5833 5833 5834 5833 5832 5831 5829 5827 5826 5824 5823 5821 5819 5818 5817 5815 5813 5810 5808 5806 5804 5801 5799 5798 5796 5794 5791 5790 5788 5787 5786 5785
5827 5829 5829 5829 5830 5830 5832 5833 5834 5835 5835 5833 5833 5833 5834 5834 5833 5833 5832 5832 5832 5830 5828 5827 5825 5823 5820 5819 5818 5816 5815 5814 5811 5809 5807 5804 5802 5800 5797 5795 5792 5790 5788 5786 5784 5782 5780 5779 5779
5826 5828 5828 5828 5830 5831 5832 5833 5835 5835 5835 5835 5833 5833 5833 5831 5832 5832 5830 5830 5830 5828 5827 5825 5824 5821 5819 5818 5816 5814 5812 5810 5807 5805 5803 5801 5798 5795 5792 5789 5787 5784 5781 5778 5776 5774 5773 5772 5771
5826 5827 5827 5830 5832 5833 5833 5834 5836 5835 5836 5834 5833 5833 5832 5833 5830 5831 5830 5830 5828 5825 5824 5822 5820 5818 5816 5814 5812 5810 5807 5805 5803 5800 5797 5794 5791 5788 5785 5782 5779 5776 5774 5772 5769 5767 5764 5763 5761
5828 5829 5829 5832 5833 5833 5834 5834 5835 5834 5835 5833 5833 5833 5831 5831 5830 5829 5827 5827 5825 5824 5822 5820 5818 5816 5814 5812 5810 5806 5803 5800 5797 5794 5790 5787 5785 5782 5779 5776 5772 5769 5767 5764 5761 5759 5757 5755 5753
5829 5830 5831 5831 5833 5833 5833 5834 5833 5836 5834 5832 5832 5833 5832 5831 5830 5828 5827 5825 5823 5821 5818 5816 5814 5811 5810 5807 5804 5801 5798 5795 5791 5787 5784 5781 5778 5775 5771 5768 5764 5761 5759 5756 5753 5750 5748 5746 5744
5830 5831 5831 5833 5834 5833 5832 5834 5832 5833 5833 5831 5831 5831 5830 5829 5827 5826 5824 5820 5818 5816 5815 5812 5809 5807 5805 5802 5798 5795 5791 5786 5783 5781 5778 5774 5770 5767 5764 5760 5755 5751 5748 5745 5742 5740 5737 5735 5733
5830 5831 5832 5833 5833 5833 5833 5833 5832 5830 5829 5829 5829 5828 5828 5826 5824 5822 5819 5816 5815 5813 5810 5808 5806 5802 5798 5795 5791 5788 5784 5780 5776 5772 5769 5765 5760 5756 5752 5749 5745 5741 5737 5733 5730 5727 5725 5723 5722
5830 5831 5832 5833 5832 5831 5830 5831 5830 5830 5828 5828 5827 5825 5824 5823 5820 5817 5815 5812 5810 5808 5806 5803 5799 5794 5792 5788 5784 5780 5776 5772 5768 5763 5759 5754 5750 5745 5740 5737 5733 5728 5724 5721 5717 5715 5713 5710 5708
5830 5830 5830 5830 5829 5829 5828 5829 5828 5827 5826 5825 5823 5822 5822 5820 5817 5814 5811 5808 5806 5803 5799 5794 5791 5788 5784 5780 5775 5771 5767 5762 5757 5753 5748 5743 5739 5734 5730 5727 5723 5719 5714 5710 5706 5704 5700 5697 5695
5829 5829 5828 5827 5827 5828 5827 5827 5826 5824 5823 5822 5821 5820 5818 5816 5813 5810 5807 5805 5801 5797 5792 5788 5783 5780 5775 5770 5766 5761 5757 5752 5747 5743 5738 5734 5730 5725 5720 5714 5709 5705 5701 5697 5694 5690 5687 5684 5679
5826 5826 5826 5826 5825 5825 5825 5824 5823 5822 5820 5819 5817 5815 5813 5810 5808 5805 5802 5799 5795 5791 5786 5782 5777 5772 5767 5762 5757 5753 5748 5743 5738 5733 5728 5722 5716 5710 5705 5700 5696 5691 5687 5683 5679 5675 5672 5668 5664
5824 5824 5823 5824 5823 5822 5822 5821 5819 5818 5816 5814 5812 5810 5808 5805 5803 5799 5796 5792 5788 5784 5779 5773 5768 5763 5758 5753 5748 5743 5738 5732 5727 5721 5715 5709 5703 5698 5693 5688 5683 5678 5673 5669 5665 5660 5655 5652 5649
5821 5821 5821 5820 5819 5820 5819 5818 5815 5813 5810 5809 5806 5805 5802 5799 5796 5792 5788 5784 5780 5775 5771 5766 5761 5756 5751 5745 5739 5734 5728 5722 5716 5711 5705 5698 5692 5686 5680 5674 5667 5661 5656 5652 5648 5643 5638 5632 5631
5818 5817 5817 5817 5816 5815 5814 5814 5809 5808 5805 5803 5801 5799 5796 5792 5788 5784 5780 5776 5771 5766 5762 5758 5753 5747 5741 5736 5730 5724 5717 5711 5703 5695 5688 5681 5675 5669 5662 5654 5646 5641 5636 5631 5626 5622 5617 5611 5607
5813 5813 5813 5812 5811 5810 5808 5808 5803 5803 5800 5797 5794 5791 5788 5784 5781 5777 5772 5768 5763 5758 5754 5749 5743 5737 5730 5724 5717 5710 5703 5695 5687 5680 5674 5667 5660 5652 5644 5637 5630 5623 5615 5608 5601 5596 5590 5586 5580
5809 5808 5808 5807 5806 5804 5803 5802 5798 5796 5793 5790 5786 5783 5780 5776 5772 5768 5763 5758 5754 5749 5743 5737 5730 5723 5716 5710 5703 5696 5689 5682 5674 5667 5661 5653 5644 5635 5627 5618 5608 5599 5591 5583 5575 5569 5562 5560 5553
5805 5805 5804 5802 5801 5799 5797 5796 5792 5789 5785 5782 5779 5775 5771 5766 5762 5757 5753 5748 5743 5737 5731 5725 5718 5711 5705 5698 5691 5684 5677 5669 5660 5651 5641 5631 5621 5612 5602 5593 5584 5575 5566 5558 5550 5540 5530 5522 5518
5802 5801 5800 5797 5796 5794 5793 5789 5785 5781 5776 5773 5770 5765 5761 5757 5753 5749 5744 5739 5733 5727 5722 5715 5708 5700 5693 5686 5679 5670 5662 5652 5641 5630 5619 5609 5599 5589 5580 5570 5559 5551 5541 5531 5521 5509 5500 5491 5483
5797 5796 5794 5792 5790 5788 5787 5781 5776 5772 5767 5765 5762 5758 5753 5749 5744 5739 5732 5727 5721 5714 5708 5701 5694 5687 5679 5671 5660 5649 5638 5628 5618 5608 5599 5588 5577 5567 5556 5546 5534 5523 5511 5498 5488 5478 5471 5468 5465
5793 5790 5788 5785 5783 5779 5777 5778 5769 5761 5759 5757 5755 5751 5746 5741 5735 5729 5725 5718 5711 5704 5697 5689 5680 5671 5661 5651 5640 5630 5620 5610 5599 5589 5578 5567 5554 5544 5531 5520 5508 5494 5482 5472 5463 5459 5455 5453 5451
5787 5783 5780 5777 5774 5771 5768 5770 5763 5756 5753 5750 5747 5741 5736 5732 5726 5720 5714 5708 5699 5691 5682 5673 5664 5655 5645 5635 5624 5614 5603 5591 5579 5567 5555 5544 5532 5519 5509 5494 5481 5470 5461 5454 5449 5445 5443 5439 5435